Find Starlink 31990

NORAD ID: 60024 Int'l Des: 2024-111 Owner: SPXS Country: US Constellation: starlink operational
LEOCIRCULAR

Live-Position

3D-Globus wird geladen...

Über Starlink 31990

Beschreibung wird geladen...

Nächste Überflüge

Passes for default location (London). Set your location on the main map for personalized predictions.

Höhenverlauf

Loading altitude history...

Zweizeiliger Elementsatz

1 60024U 24111J 26126.49113661 -.00002117 00000-0 -59399-4 0 9991
2 60024 53.1600 167.1146 0001601 26.8530 333.2553 15.30175688107889
Epoch: 6. Mai 2026 • Age: 11 hours

Aktueller Status

Höhe 479.9 km
Geschwindigkeit 7.63 km/s
Subsatellitenpunkt 48.24°N, 10.82°E
Startdatum 8. Juni 2024
Alter 1.9 years
Typ internet

Technische Details

Klassifizierung Payload
Masse 730.00 kg
Trockenmasse 700.00 kg
Gesamtmasse 730.00 kg
Länge 0.30 m
Durchmesser 4.10 m
Spannweite 29.00 m
Form Box + pan
Hersteller SPXS
Bus-Typ Starlink V2M
Phasenstatus In Orbit
Besitzer/Staat SPXS/US

Most Searched